Location: Auchy-au-Bois
(50.5540°N, 2.3717°E)
Time: 07:15:48
(UTC+00:00)

Daily predictions for brighter satellites

Satellite Brightness Start Highest point End
(mag) Time Altitude Azimuth Time Altitude Azimuth Time Altitude Azimuth
NOSS 2-2 (C) 4.4 16:50:16 10° NW 16:55:31 80° NE 17:02:54 10° SE
CZ-4C R/B 3.8 16:51:56 10° NW 16:57:13 28° N 17:03:20 10° ENE
Cosmos 2227 Rocket 2.5 16:52:08 10° NNW 16:57:38 48° NE 17:03:06 10° SE
Cosmos 1818 4.5 16:53:01 10° WSW 16:58:14 46° NW 17:03:31 10° NE
Cosmos 2263 Rocket 3.8 16:55:16 10° N 16:58:47 16° NNE 17:02:17 10° ENE
Cosmos 1908 3.4 16:56:15 10° SSW 17:00:06 77° W 17:04:00 10° N
Meteor 1-16 Rocket 4.4 16:55:14 10° SSW 17:00:49 76° WNW 17:06:16 10° N
Cosmos 1110 Rocket 4.0 16:55:58 10° S 17:01:10 67° ESE 17:06:21 10° NNE
Cosmos 1939 Rocket 3.8 16:59:24 10° ESE 17:02:44 26° ENE 17:06:01 10° N
USA 307 2.9 17:00:47 10° WNW 17:05:05 72° NNE 17:09:21 10° ESE
H-2A R/B 1.9 17:01:16 10° NNE 17:05:27 84° ESE 17:09:34 10° SSW
COSMO-SKYMED 1 3.8 17:03:39 10° NE 17:07:00 21° E 17:10:20 10° SE
Landsat 5 3.6 17:04:48 10° N 17:08:41 74° WNW 17:12:40 10° SSW
Envisat 3.6 17:04:36 10° S 17:09:39 65° WSW 17:14:43 10° NNW
USA 308 2.9 17:05:45 10° WNW 17:10:04 74° NNE 17:14:21 10° ESE
Cosmos 1486 Rocket 4.3 17:05:59 10° NNW 17:11:09 47° ENE 17:16:17 10° SE
Cosmos 1300 2.9 17:07:38 10° S 17:11:19 48° E 17:15:01 10° NNE
CZ-4B R/B 1.9 17:09:56 10° NNE 17:12:56 35° E 17:15:51 10° SSE
Cosmos 1400 Rocket 3.6 17:09:21 10° SSE 17:13:00 32° E 17:16:39 10° NNE
Cosmos 1825 Rocket 3.7 17:08:56 10° NNW 17:13:25 82° W 17:17:49 10° S
Cosmos 1825 3.9 17:12:08 10° NNE 17:14:15 14° ENE 17:16:22 10° E
Cosmos 1697 Rocket 4.0 17:10:37 10° SE 17:14:28 19° E 17:18:21 10° NE
ERS-2 2.4 17:13:13 10° NNE 17:16:47 47° ESE 17:20:18 10° S
Helios 1A Rocket 3.7 17:16:30 10° SE 17:20:04 29° ENE 17:23:39 10° N
Meteor 2-21 Rocket 4.5 17:14:49 10° N 17:21:03 88° ENE 17:27:11 10° S
BREEZE-M TANK 4.0 17:10:19 10° W 17:21:08 54° S 17:24:49 10° ESE
YAOGAN 1 3.6 17:19:01 10° ESE 17:22:30 24° ENE 17:26:01 10° N
Cosmos 1340 2.7 17:22:00 10° N 17:25:44 56° ENE 17:29:27 10° SSE
NOAA 11 4.1 17:21:56 10° SSE 17:27:22 77° ENE 17:32:48 10° NNW
Cosmos 44 3.2 17:23:20 10° SW 17:27:52 81° SE 17:32:44 10° NE
CZ-2D R/B 3.8 17:24:33 10° SE 17:28:01 34° ENE 17:31:29 10° N
Okean O Rocket 2.3 17:24:58 10° S 17:29:16 60° WSW 17:33:35 10° NNW
Cosmos 2228 3.1 17:25:23 10° SSW 17:29:39 83° WNW 17:33:58 10° N
Cosmos 1726 Rocket 3.5 17:26:08 10° S 17:30:29 77° E 17:34:55 10° NNE
CZ-4 R/B 2.1 17:27:31 10° SE 17:30:52 29° ENE 17:34:13 10° N
Cosmos 1346 Rocket 3.3 17:29:46 10° N 17:33:30 36° ENE 17:37:12 10° SE
SL-4 R/B 1.6 17:30:07 10° W 17:33:38 79° N 17:36:33 16° E
Cosmos 1354 Rocket 4.5 17:29:12 10° NNW 17:34:08 39° NE 17:39:03 10° SE
Cosmos 2058 3.5 17:30:31 10° N 17:34:18 34° ENE 17:38:03 10° SE
Aureole 3 2.8 17:33:15 10° S 17:36:10 46° E 17:39:04 10° NNE
Cosmos 2151 4.5 17:34:22 10° NNE 17:37:00 16° ENE 17:37:30 16° ENE
Cosmos 2369 Rocket 4.3 17:32:58 10° W 17:37:14 21° NW 17:41:31 10° NNE
Cosmos 2297 Rocket 2.3 17:31:34 10° NNW 17:37:16 82° WSW 17:42:55 10° SSE
Cosmos 1980 Rocket 3.6 17:34:54 10° SE 17:38:12 16° E 17:39:22 15° E
In-Cosmos 22 Rocket 4.1 17:33:40 10° N 17:39:03 72° ENE 17:44:31 10° SSE
CZ-2C R/B 3.6 17:39:16 10° SE 17:44:40 44° ENE 17:49:54 10° N
Cosmos 1315 Rocket 3.7 17:43:28 10° SSE 17:46:50 27° E 17:50:14 10° NNE
Cosmos 1606 Rocket 4.2 17:42:40 10° SSW 17:47:00 60° WNW 17:51:24 10° N
Cosmos 1553 Rocket 4.0 17:44:40 10° S 17:50:52 60° E 17:57:01 10° NNE
BREEZE-M R/B 3.4 17:50:19 10° W 17:53:57 79° S 17:59:00 18° ESE
Ariane Rocket 4.5 17:53:41 17° ENE 17:54:07 17° NE 17:57:22 10° NNE
USA 305 3.1 17:50:34 10° WNW 17:54:52 72° SSW 17:58:11 16° SE
SKYMED 2 3.6 17:51:04 10° NNE 17:55:24 59° E 17:59:41 10° S
Meteor 2-10 Rocket 3.7 17:51:39 10° SSE 17:56:38 46° E 18:01:30 10° NNE
Cosmos 1455 2.7 17:55:12 10° SSE 17:58:39 34° E 18:02:09 10° NNE
Cosmos 292 Rocket 4.4 17:54:31 10° SW 17:59:16 59° WNW 18:04:05 10° NNE
NOSS 3-4 (A) 4.0 17:53:54 10° NW 18:00:29 52° NE 18:05:39 20° ESE
NOSS 3-4 (C) 4.0 17:54:01 10° NW 18:00:35 52° NE 18:05:43 20° ESE
USA 306 3.2 17:57:06 10° WNW 18:01:22 67° SSW 18:04:25 18° SE
SeaSat 1 3.3 18:00:38 23° E 18:02:43 32° NE 18:07:04 10° NNW
H-2A R/B 2.4 17:59:57 10° SE 18:05:06 45° ENE 18:10:18 10° N
Okean-O 2.5 18:02:00 10° SSE 18:06:25 74° ENE 18:10:51 10° N
FALCON 9 DEB 2.9 18:03:42 10° WSW 18:06:56 84° NNW 18:07:57 40° ENE
MOS 1 Rocket 4.0 18:03:32 10° NNE 18:07:47 32° E 18:12:13 10° SSE
FALCON 9 DEB 2.9 18:05:40 10° WSW 18:08:53 80° NNW 18:09:47 43° ENE
Cosmos 2219 4.3 18:05:14 10° NW 18:10:43 46° WSW 18:16:10 10° S
Cosmos 2278 4.4 18:06:31 10° SSE 18:11:21 30° ESE 18:12:45 27° E
NOSS 3-3 (A) 4.1 18:06:18 10° SSW 18:11:55 49° ESE 18:16:10 20° NE
NOSS 3-3 (C) 4.1 18:06:26 10° SSW 18:12:02 49° ESE 18:16:14 20° ENE
Aureole 3 Rocket 3.7 18:07:58 10° SSW 18:12:17 74° WNW 18:18:25 10° N
USA 215 3.6 18:10:10 23° ENE 18:14:15 53° N 18:20:34 10° WNW
ATLAS 5 CENTAUR R/B 3.7 18:11:11 10° NW 18:14:37 19° N 18:17:34 13° NE
Cosmos 1745 Rocket 3.9 18:08:24 10° N 18:14:44 82° E 18:21:06 10° SSE
Cosmos 1408 2.5 18:14:19 10° N 18:18:00 89° WSW 18:21:40 10° S
Cosmos 2082 3.8 18:12:22 10° NNW 18:18:08 84° WSW 18:23:53 10° SSE
Lacrosse 5 2.5 18:13:19 10° WNW 18:18:09 42° N 18:20:12 29° ENE
Meteor 2-3 Rocket 4.5 18:13:26 10° N 18:18:32 32° ENE 18:19:36 30° E
Cosmos 44 Rocket 3.9 18:15:14 10° S 18:19:31 34° ESE 18:19:58 33° ESE
GEOS 3 Rocket 3.7 18:17:20 26° ESE 18:20:19 62° NE 18:25:40 10° NW
ARGOS 3.4 18:17:21 19° SE 18:20:58 46° ENE 18:26:09 10° N
HJ-1C 4.3 18:23:13 33° NNE 18:23:13 33° NNE 18:25:26 10° N
ATLAS 2AS CENTAUR R/B 3.0 18:15:04 10° NW 18:22:36 55° NE 18:26:17 29° E
Cosmos 968 Rocket 4.3 18:18:18 10° NNW 18:23:22 53° WSW 18:28:23 10° S
Cosmos 1386 Rocket 4.5 18:17:04 10° N 18:23:31 88° E 18:29:52 10° S
ERBS 3.4 18:20:33 10° NW 18:23:34 31° NNE 18:23:42 31° NNE
FALCON 9 DEB 2.9 18:20:23 10° W 18:23:38 72° NNW 18:24:00 62° NE
Cosmos 1689 Rocket 2.4 18:21:51 14° N 18:24:11 61° WNW 18:27:01 10° SSW
Cosmos 1656 3.7 18:18:43 10° SSW 18:24:19 80° WNW 18:30:02 10° NNE
Cosmos 2058 Rocket 4.0 18:20:40 10° SSW 18:25:02 50° WNW 18:29:28 10° N
SL-08 RB Rocket 4.5 18:26:12 32° NE 18:26:12 32° NE 18:29:45 10° N
Cosmos 1844 Rocket 4.3 18:27:31 10° N 18:31:18 18° NNE 18:31:40 18° NE
Cosmos 1076 Rocket 3.4 18:28:05 10° N 18:32:22 86° W 18:36:38 10° S
FALCON 9 DEB 3.0 18:29:21 10° WNW 18:32:47 76° SSW 18:32:58 72° SSE
FALCON 9 DEB 3.1 18:29:57 10° W 18:33:08 65° NNW 18:33:08 65° NNW
Cosmos 1892 4.1 18:30:55 10° NNW 18:34:34 39° W 18:38:12 10° SSW
SJ 16-02 3.4 18:32:22 10° N 18:33:44 15° NNE 18:33:44 15° NNE
Cosmos 2369 3.6 18:29:57 10° SSW 18:35:36 64° ESE 18:39:11 23° NE
Cosmos 1777 Rocket 4.1 18:32:27 10° NNW 18:37:34 53° ENE 18:38:35 45° E
Cosmos 2227 Rocket 3.8 18:36:28 10° NW 18:41:32 35° WSW 18:46:36 10° S
CSL-04 Rocket 3.6 18:36:46 10° SSE 18:42:19 85° ENE 18:47:51 10° NNW
COSMO-SKYMED 1 3.5 18:39:13 10° N 18:43:26 49° WNW 18:47:36 10° SW
Cosmos 2263 Rocket 2.3 18:38:30 10° NNW 18:44:06 53° NE 18:45:08 46° E
Cosmos 1709 Rocket 3.9 18:37:50 10° N 18:44:15 79° E 18:50:39 10° SSE
CZ-4B R/B 4.3 18:42:48 10° NNW 18:44:56 17° WNW 18:47:02 10° WSW
USA 307 4.0 18:41:00 10° WNW 18:44:59 38° SW 18:46:28 28° S
CZ-4C R/B 3.2 18:40:52 10° NW 18:47:21 47° NNE 18:49:38 37° ENE
USA 308 4.1 18:46:00 10° WNW 18:49:56 36° SW 18:51:15 29° S
Cosmos 1825 2.7 18:46:25 10° NNW 18:50:10 59° W 18:52:23 22° S
Cosmos 1697 Rocket 2.7 18:52:08 10° SSW 18:57:45 81° WNW 19:01:26 23° NNE
YAOGAN 1 3.6 18:54:15 10° S 18:58:23 44° W 19:02:34 10° NNW
Cosmos 2074 Rocket 4.3 18:52:44 10° N 18:58:06 43° ENE 18:58:06 43° ENE
Cosmos 883 Rocket 4.3 18:54:36 10° S 19:00:46 87° E 19:06:55 10° N
Cosmos 1812 Rocket 3.9 19:01:16 10° SSW 19:05:37 62° WNW 19:09:58 10° N
CZ-4 R/B 3.2 19:02:29 10° SSW 19:05:52 29° W 19:09:17 10° NW
Cosmos 2315 Rocket 3.8 19:05:22 10° S 19:11:34 86° E 19:17:49 10° N
SL-4 R/B 3.2 19:09:37 10° W 19:12:08 35° WSW 19:12:08 35° WSW
Cosmos 2151 3.5 19:10:34 10° NNW 19:14:07 55° NW 19:14:07 55° NW
DMSP B5D2-7 4.5 19:15:02 80° E 19:15:07 80° ENE 19:20:35 10° NNW
Cosmos 1980 Rocket 2.0 19:15:44 10° SSW 19:21:13 84° S 19:21:13 84° S
Geosat 4.4 19:33:07 56° SW 19:33:07 56° SW 19:37:06 10° SW
Ariane Rocket 3.7 19:33:53 48° NNW 19:33:53 48° NNW 19:37:33 10° NNW
Cosmos 2227 4.4 19:33:12 10° NNW 19:38:36 68° W 19:38:36 68° W
SeaSat 1 3.1 19:40:26 53° W 19:40:26 53° W 19:44:54 10° NW
H-2A R/B 3.7 19:39:47 10° SSW 19:44:39 33° W 19:49:35 10° NNW
NOSS 3-4 (A) 4.3 19:44:50 10° NW 19:51:37 56° SW 19:53:07 48° SSW
NOSS 3-4 (C) 4.3 19:44:56 10° NW 19:51:43 56° SW 19:53:11 48° SSW
Cosmos 2278 4.3 19:49:38 10° SW 19:54:44 54° WNW 19:54:44 54° WNW
USA 215 3.2 19:57:31 77° NW 19:57:31 77° NW 20:03:34 10° WNW
ATLAS 5 CENTAUR R/B 3.9 19:56:37 10° NW 19:59:06 22° N 19:59:06 22° N
Lacrosse 5 3.3 19:56:30 10° WNW 19:59:23 35° NW 19:59:23 35° NW
COSMOS 2455 4.3 19:59:25 10° NNW 20:02:51 28° N 20:02:51 28° N
Cosmos 2278 Rocket 4.4 20:05:13 10° N 20:06:48 15° N 20:06:48 15° N
ATLAS 2AS CENTAUR R/B 3.3 20:06:26 10° NW 20:13:37 51° WSW 20:13:44 51° SW
SJ 16-02 4.1 20:10:05 10° NNW 20:10:42 14° NNW 20:10:42 14° NNW
Cosmos 1844 Rocket 4.4 20:10:46 10° NNW 20:13:19 27° NNW 20:13:19 27° NNW
Cosmos 2263 Rocket 3.8 20:22:49 10° NW 20:26:50 30° W 20:26:50 30° W
CZ-4C R/B 3.4 20:29:19 10° NW 20:34:50 55° WNW 20:34:50 55° WNW
